Home > Weather > Knox > Past weeks

Flag for USA Past Weather in Knox, Indiana, USA — Yesterday and Last 2 Weeks

Now
71 °F

Sunny.


Feels Like: 65 °F
Forecast: 75 / 90 °F
Wind: 5 mph from South

Location: Porter County Municipal Airport

Current Time: Jul 24, 2016 at 7:49:06 AM

Latest Report: Jul 24, 2016 at 6:56 AM


Visibility: 10 mi

Pressure: 29.94 "Hg

Humidity: 96%

Dew Point: 70 °F

Location of KnoxLocation

Past Weather in Knox — Graph

°F

Knox Temperature Yesterday

Maximum temperature yesterday: 91 °F (at 1:56 PM)
Minimum temperature yesterday: 70 °F (at 11:56 PM)
Average temperature yesterday: 82 °F

High & Low Weather Summary for the Past Weeks

 TemperatureHumidityPressure
High91 °F (Jul 23, 1:56 PM)100% (Jul 13, 5:56 AM)30.25 "Hg (Jul 13, 5:56 AM)
Low55 °F (Jul 17, 2:56 AM)37% (Jul 16, 2:56 PM)29.78 "Hg (Jul 13, 5:56 PM)
Average75 °F75%30.02 "Hg
* Reported Jul 9 5:56 AM — Jul 24 5:56 AM, Knox, Weather by CustomWeather, © 2016

Note: Actual official high and low records may vary slightly from our data, if they occured in-between our weather recording intervals... More about our weather records

Advertising

Knox Weather History for the Previous 24 Hours

Scroll right to see more
 ConditionsComfort  
Time TempWeatherWind HumidityBarometerVisibility
5:56 AM
Sun, Jul 24
71 °FBroken clouds.5 mph93%29.93 "Hg10 mi
4:56 AM71 °FPassing clouds.5 mph93%29.93 "Hg10 mi
3:56 AM71 °FPassing clouds.3 mph93%29.92 "Hg10 mi
2:56 AM71 °FLight rain. Passing clouds.7 mph93%29.92 "Hg10 mi
1:56 AM71 °FRain. Mostly cloudy.6 mph93%29.97 "Hg10 mi
12:56 AM70 °FThundershowers. Overcast.8 mph97%30.01 "Hg10 mi
11:56 PM
Sat, Jul 23
70 °FStrong thunderstorms. Mostly cloudy.13 mph93%30.02 "Hg10 mi
10:56 PM75 °FClear.6 mph82%29.93 "Hg10 mi
9:56 PM73 °FClear.7 mph88%29.94 "Hg10 mi
8:56 PM75 °FPassing clouds.13 mph82%29.97 "Hg10 mi
7:56 PM82 °FPassing clouds.8 mph85%29.95 "Hg10 mi
6:56 PM86 °FSunny.3 mph75%29.91 "Hg10 mi
5:56 PM88 °FSunny.7 mph67%29.92 "Hg10 mi
4:56 PM89 °FPassing clouds.10 mph65%29.93 "Hg10 mi
3:56 PM89 °FPassing clouds.10 mph65%29.93 "Hg10 mi
2:56 PM90 °FPassing clouds.10 mph63%29.96 "Hg10 mi
1:56 PM91 °FPartly sunny.13 mph61%29.98 "Hg10 mi
12:56 PM89 °FScattered clouds.9 mph65%29.97 "Hg10 mi
11:56 AM88 °FBroken clouds.3 mph67%29.98 "Hg10 mi
11:03 AM86 °FScattered clouds.5 mph72%30.01 "Hg10 mi
10:56 AM88 °FBroken clouds.5 mph67%29.99 "Hg10 mi
9:56 AM85 °FBroken clouds.3 mph75%29.98 "Hg10 mi
8:56 AM84 °FPartly sunny.No wind77%29.98 "Hg10 mi
7:56 AM81 °FSunny.5 mph82%29.99 "Hg10 mi
Weather by CustomWeather, © 2016

See weather overviewHow to use our weather pages